Starlink 35107

operational
NORAD ID: 65464 Int'l Des: 2025-195 Owner: SPXS Country: US Constellation: starlink
LEOCIRCULAR

Starlink 35107について

説明を読み込み中...

リアルタイム位置

3D地球を読み込み中...

次回通過

高度履歴

Altitude vs Time

uPlot chart will show altitude changes over time

軌道要素

1 65464U 25195G 25293.91570588 .00073065 00000-0 18168-2 0 9998
2 65464 53.1596 189.5551 0000792 66.8758 293.2330 15.39659228 8569
Epoch: Oct 20, 2025 • Age: 17 hours

現在のステータス

高度 448.8 km
速度 7.64 km/s
衛星直下点 -6.99°S, 75.49°W
打ち上げ日 Sep 3, 2025
運用期間 0.1 years
タイプ internet

技術仕様

分類 Payload
質量 575.00 kg
乾燥質量 530.00 kg
総質量 575.00 kg
長さ 0.30 m
直径 4.10 m
スパン 29.00 m
形状 Box + pan
製造者 SPXS
バスタイプ Starlink V2MO
フェーズステータス In Orbit
所有者/国 SPXS/US

大規模コンステレーション

Loading constellations...